Location: Esterri de Aneo
(42.6284°N, 1.1223°E)
Time: 02:56:23
(UTC+00:00)

SPOT 1/Viking Rocket - Pass Details

Date: 11 December 2025
Orbit: 772 x 790 km, 98.2° (Epoch: 12 January)

Event Time Altitude Azimuth Distance (km) Brightness Sun altitude
Rises 17:32:51 0° 148° (SSE) 3,272 6.6 -12.6°
Reaches altitude 10° 17:35:15 10° 142° (SE) 2,348 5.8 -13.0°
Maximum altitude 17:40:10 46° 70° (ENE) 1,061 3.8 -13.8°
Drops below altitude 10° 17:45:07 10° 359° (N) 2,362 5.9 -14.7°
Sets 17:47:32 0° 353° (N) 3,294 6.7 -15.1°
